DW9852 Weather Reports


Display with metric or nautical units.
time (UTC)temp
F
wind
direction
speed
MPH
gust
MPH
rain 1hr
in
rain 24hr
in
rain mn
in
humidity
%
barometer
mb
20260831233058 96 0 2.0 6.0 0.00 0.00 0.00 45 1014.3
20260831231553 96 114 3.0 10.0 0.00 0.00 0.00 45 1014.3
20260831230050 97 0 1.0 7.0 0.00 0.00 0.00 46 1014.5
20260831224550 97 107 3.0 7.0 0.00 0.00 0.00 42 1014.5
20260831223100 98 74 2.0 6.0 0.00 0.00 0.00 42 1014.6
20260831221619 99 136 1.0 7.0 0.00 0.00 0.00 41 1014.6
20260831220053 97 122 1.0 6.0 0.00 0.00 0.00 41 1014.9
20260831214550 97 108 2.0 8.0 0.00 0.00 0.00 41 1015.2
20260831213048 97 0 0.0 9.0 0.00 0.00 0.00 42 1015.4
20260831211552 96 95 4.0 8.0 0.00 0.00 0.00 42 1015.5
20260831210052 97 71 4.0 7.0 0.00 0.00 0.00 44 1015.7
20260831204550 96 28 3.0 11.0 0.00 0.00 0.00 46 1016.0
20260831203105 96 0 0.0 6.0 0.00 0.00 0.00 49 1016.3
20260831201550 95 86 4.0 9.0 0.00 0.00 0.00 50 1016.5
20260831200136 96 0 3.0 6.0 0.00 0.00 0.00 47 1017.0
20260831194556 96 0 2.0 7.0 0.00 0.00 0.00 49 1017.1
20260831193048 95 353 0.0 7.0 0.00 0.00 0.00 51 1017.3
20260831191556 95 143 1.0 8.0 0.00 0.00 0.00 52 1017.6
20260831190053 94 27 1.0 9.0 0.00 0.00 0.00 53 1017.8
20260831184552 93 103 1.0 8.0 0.00 0.00 0.00 56 1018.0
20260831183059 93 38 1.0 4.0 0.00 0.00 0.00 55 1018.2
20260831181559 93 97 2.0 6.0 0.00 0.00 0.00 55 1018.4
20260831180055 93 0 0.0 9.0 0.00 0.00 0.00 58 1018.3
20260831174600 91 261 2.0 7.0 0.00 0.00 0.00 57 1018.6
20260831173055 90 68 2.0 7.0 0.00 0.00 0.00 60 1018.7
20260831171605 90 0 1.0 8.0 0.00 0.00 0.00 66 1018.8
20260831170111 90 0 0.0 4.0 0.00 0.00 0.00 68 1018.8
20260831164547 89 169 1.0 5.0 0.00 0.00 0.00 66 1019.1
20260831163054 88 35 2.0 8.0 0.00 0.00 0.00 72 1018.9
20260831161554 88 134 0.0 5.0 0.00 0.00 0.00 70 1019.1
20260831160055 87 159 2.0 7.0 0.00 0.00 0.00 72 1019.0
20260831154621 86 188 2.0 6.0 0.00 0.00 0.00 75 1019.1
20260831153058 85 0 0.0 5.0 0.00 0.00 0.00 77 1018.9
20260831151601 84 139 2.0 6.0 0.00 0.00 0.00 77 1018.8
20260831150051 84 51 0.0 5.0 0.00 0.00 0.00 79 1018.8
20260831144601 83 242 0.0 4.0 0.00 0.00 0.00 83 1018.8
20260831143056 0 0.0 0.0 0.00 0.00 0.00 1018.7
20260831141604 0 0.0 0.0 0.00 0.00 0.00 1018.6
20260831140051 0 0.0 0.0 0.00 0.00 0.00 1018.4
20260831134554 0 0.0 0.0 0.00 0.00 0.00 1018.4
20260831133100 0 0.0 0.0 0.00 0.00 0.00 1018.1
20260831131547 0 0.0 0.0 0.00 0.00 0.00 1018.1
20260831130101 0 0.0 0.0 0.00 0.00 0.00 1018.0
20260831124559 0 0.0 0.0 0.00 0.00 0.00 1018.0
20260831123050 0 0.0 0.0 0.00 0.00 0.00 1017.7
20260831121549 0 0.0 0.0 0.00 0.00 0.00 1017.7
20260831120127 0 0.0 0.0 0.00 0.00 0.00 1017.8
20260831114554 0 0.0 0.0 0.00 0.00 0.00 1017.8
20260831113057 0 0.0 0.0 0.00 0.00 0.00 1017.7
20260831111554 0 0.0 0.0 0.00 0.00 0.00 1017.6
20260831110056 0 0.0 0.0 0.00 0.00 0.00 1017.6
20260831104603 0 0.0 0.0 0.00 0.00 0.00 1017.6
20260831103051 0 0.0 0.0 0.00 0.00 0.00 1017.6
20260831101557 0 0.0 0.0 0.00 0.00 0.00 1017.7
20260831100109 0 0.0 0.0 0.00 0.00 0.00 1017.8
20260831094553 0 0.0 0.0 0.00 0.00 0.00 1017.7
20260831093055 0 0.0 0.0 0.00 0.00 0.00 1017.6
20260831091554 0 0.0 0.0 0.00 0.00 0.00 1017.7
20260831084559 79 127 0.0 3.0 0.00 0.00 0.00 89 1017.8
20260831083051 79 47 0.0 3.0 0.00 0.00 0.00 89 1017.9
20260831081600 79 0 0.0 3.0 0.00 0.00 0.00 88 1017.8
20260831080054 79 215 0.0 5.0 0.00 0.00 0.00 88 1017.8
20260831074554 79 139 0.0 3.0 0.00 0.00 0.00 88 1017.7
20260831073051 79 94 0.0 4.0 0.00 0.00 0.00 88 1017.9
20260831071549 79 0 0.0 3.0 0.00 0.00 0.00 87 1017.9
20260831070105 80 0 0.0 6.0 0.00 0.00 0.00 86 1017.8
20260831064554 80 168 0.0 3.0 0.00 0.00 0.00 86 1017.9
20260831063053 80 0 0.0 4.0 0.00 0.00 0.00 85 1017.9
20260831061610 80 0 0.0 7.0 0.00 0.00 0.00 84 1017.9
20260831060109 81 84 1.0 6.0 0.00 0.00 0.00 83 1017.9
20260831054554 81 0 1.0 6.0 0.00 0.00 0.00 81 1017.8
20260831053110 82 136 1.0 7.0 0.00 0.00 0.00 79 1017.6
20260831051548 82 108 2.0 11.0 0.00 0.00 0.00 77 1017.6
20260831050103 83 86 1.0 8.0 0.00 0.00 0.00 75 1017.6
20260831044552 83 81 3.0 11.0 0.00 0.00 0.00 73 1017.4
20260831043052 84 179 4.0 13.0 0.00 0.00 0.00 71 1017.4
20260831041555 85 79 2.0 12.0 0.00 0.00 0.00 67 1017.3
20260831040055 85 122 4.0 11.0 0.00 0.00 0.00 67 1017.0
20260831034553 86 96 4.0 13.0 0.00 0.00 0.00 66 1016.9
20260831033107 86 64 2.0 10.0 0.00 0.00 0.00 63 1016.7
20260831031548 87 0 2.0 6.0 0.00 0.00 0.00 63 1016.7
20260831030056 87 138 5.0 11.0 0.00 0.00 0.00 61 1016.4
20260831024552 88 172 4.0 11.0 0.00 0.00 0.00 61 1016.2
20260831023052 88 149 1.0 5.0 0.00 0.00 0.00 62 1015.8
20260831021548 89 91 3.0 12.0 0.00 0.00 0.00 61 1015.5
20260831020108 89 129 4.0 12.0 0.00 0.00 0.00 60 1015.2
20260831014553 90 123 4.0 11.0 0.00 0.00 0.00 60 1015.1
20260831013056 91 103 2.0 9.0 0.00 0.00 0.00 58 1014.9
20260831011547 91 241 3.0 13.0 0.00 0.00 0.00 56 1014.8
20260831010057 93 108 5.0 10.0 0.00 0.00 0.00 53 1014.5
20260831004557 94 81 1.0 6.0 0.00 0.00 0.00 49 1014.3
20260831003053 95 101 1.0 4.0 0.00 0.00 0.00 46 1014.0
20260831001549 96 244 0.0 5.0 0.00 0.00 0.00 45 1013.9
20260831000055 96 63 0.0 7.0 0.00 0.00 0.00 45 1014.1
20260830234551 96 0 0.0 4.0 0.00 0.00 0.00 45 1014.1